Knoxville, TN

9:56 AM EST on November 21, 2019 (GMT -0500)
McGhee Tyson

Weather History for KTYS - September, 2019

Change the Weather History Date:

Thursday, September 19, 2019

  Actual Average Record
Temperature  
Mean Temperature 76 °F 70 °F  
Max Temperature 84 °F 81 °F 98 °F (1925)
Min Temperature 68 °F 59 °F 42 °F (1901)
Degree Days  
Heating Degree Days 0 1  
Month to date heating degree days 0 4  
Since 1 July heating degree days 0 4  
Cooling Degree Days 11 6  
Month to date cooling degree days 275 160  
Year to date cooling degree days 1728 1441  
Growing Degree Days 26 (Base 50)    
Moisture  
Dew Point 60 °F    
Average Humidity 60    
Maximum Humidity 75    
Minimum Humidity 44    
Precipitation  
Precipitation T in 0.10 in 1.90 in (1969)
Month to date precipitation T 2.03  
Year to date precipitation 48.23 35.63  
Snow  
Snow 0.00 in 0.00 in - ()
Month to date snowfall 0.0 0.0  
Since 1 July snowfall 0.0 0.0  
Since 1 September snowfall 0.0 0.0  
Snow Depth 0.00 in    
Sea Level Pressure  
Sea Level Pressure 30.11 in    
Wind  
Wind Speed 4 mph ()    
Max Wind Speed 13 mph    
Max Gust Speed 17 mph    
Visibility 10.0 miles    
Events Rain    
T = Trace of Precipitation, MM = Missing Value Source: Averaged Metar Reports

Daily Weather History Graph

Daily Weather History Graph

Search for Another Location

Airport or City:

Astronomy

Sep. 19, 2019 Rise Set
Actual Time 7:21 AM EDT 7:37 PM EDT
Civil Twilight 6:55 AM EDT 8:03 PM EDT
Nautical Twilight 6:25 AM EDT 8:32 PM EDT
Astronomical Twilight 5:55 AM EDT 9:03 PM EDT
Moon 10:56 PM EDT (9/19) 12:14 PM EDT (9/19)
Length of Visible Light 13h 07m
Length of Day
12h 16m
Waning Gibbous, 74% of the Moon is Illuminated
Sep 19
Waning Gibbous
Sep 21
Last Quarter
Sep 28
New
Oct 5
First Quarter
Oct 13
Full

Hourly Weather History & Observations

Time (EDT) Temp. Heat Index Dew Point Humidity Pressure Visibility Wind Dir Wind Speed Gust Speed Precip Events Conditions
12:53 AM 75.0 °F - 63.0 °F 66% 30.05 in 10.0 mi North 6.9 mph - N/A   Overcast
1:53 AM 73.9 °F - 62.1 °F 66% 30.06 in 10.0 mi NNE 6.9 mph - 0.00 in Rain Light Rain
2:53 AM 73.0 °F - 61.0 °F 66% 30.06 in 10.0 mi NNE 5.8 mph - 0.00 in   Overcast
3:53 AM 72.0 °F - 61.0 °F 68% 30.07 in 10.0 mi North 4.6 mph - N/A   Overcast
4:53 AM 72.0 °F - 61.0 °F 68% 30.07 in 10.0 mi ENE 3.5 mph - N/A   Overcast
5:27 AM 72.0 °F - 61.0 °F 68% 30.11 in 10.0 mi Calm Calm - N/A   Overcast
5:39 AM 72.0 °F - 61.0 °F 68% 30.11 in 10.0 mi Calm Calm - N/A   Overcast
5:53 AM 72.0 °F - 61.0 °F 68% 30.09 in 10.0 mi Calm Calm - N/A   Overcast
6:53 AM 72.0 °F - 62.1 °F 71% 30.10 in 10.0 mi North 3.5 mph - N/A   Overcast
7:53 AM 71.1 °F - 63.0 °F 75% 30.12 in 10.0 mi ENE 3.5 mph - N/A   Overcast
8:53 AM 72.0 °F - 62.1 °F 71% 30.14 in 10.0 mi North 3.5 mph - N/A   Mostly Cloudy
9:53 AM 73.0 °F - 61.0 °F 66% 30.15 in 10.0 mi North 3.5 mph - N/A   Mostly Cloudy
10:53 AM 77.0 °F - 59.0 °F 54% 30.14 in 10.0 mi SSW 6.9 mph - N/A   Partly Cloudy
11:53 AM 78.1 °F - 57.9 °F 50% 30.15 in 10.0 mi Calm Calm - N/A   Mostly Cloudy
12:53 PM 81.0 °F 81.1 °F 57.9 °F 45% 30.15 in 10.0 mi WSW 8.1 mph - N/A   Mostly Cloudy
1:53 PM 81.0 °F 81.1 °F 57.9 °F 45% 30.14 in 10.0 mi SW 8.1 mph - N/A   Overcast
2:53 PM 81.0 °F 81.1 °F 57.9 °F 45% 30.13 in 10.0 mi SSW 5.8 mph - N/A   Mostly Cloudy
3:53 PM 82.9 °F 82.8 °F 59.0 °F 44% 30.11 in 10.0 mi SW 8.1 mph - N/A   Scattered Clouds
4:53 PM 82.0 °F 82.1 °F 59.0 °F 45% 30.10 in 10.0 mi Variable 4.6 mph - N/A   Mostly Cloudy
5:53 PM 80.1 °F 80.7 °F 59.0 °F 48% 30.10 in 10.0 mi South 4.6 mph - N/A   Mostly Cloudy
6:53 PM 80.1 °F 80.7 °F 59.0 °F 48% 30.10 in 10.0 mi SSE 6.9 mph - N/A   Mostly Cloudy
7:53 PM 78.1 °F - 60.1 °F 54% 30.11 in 10.0 mi SSE 6.9 mph - N/A   Mostly Cloudy
8:53 PM 75.0 °F - 59.0 °F 57% 30.12 in 10.0 mi SE 3.5 mph - N/A   Mostly Cloudy
9:53 PM 73.0 °F - 59.0 °F 61% 30.14 in 10.0 mi East 3.5 mph - N/A   Scattered Clouds
10:53 PM 72.0 °F - 61.0 °F 68% 30.15 in 10.0 mi NW 4.6 mph - N/A   Partly Cloudy
11:53 PM 70.0 °F - 61.0 °F 73% 30.16 in 10.0 mi NNW 4.6 mph - N/A   Scattered Clouds